Regional Weather Roundup
Issued by NWS

Home | Current Version | Previous Version | Graphics & Text | Print | Product List | Glossary On
Versions: 1 2 3 4 5 6 7 8 9 10 11 12 13 14 15 16 17 18 19 20 21 22 23 24 25 26 27 28 29 30 31 32 33 34 35 36 37 38 39 40 41 42 43 44 45 46 47 48 49 50
093
ASUS43 KFSD 091002
RWRSD

WEATHER ROUNDUP FOR SOUTH DAKOTA
NATIONAL WEATHER SERVICE SIOUX FALLS SD
400 AM CST FRI DEC 09 2016

NOTE: "FAIR" INDICATES FEW OR NO CLOUDS BELOW 12,000 FEET WITH NO
SIGNIFICANT WEATHER AND/OR OBSTRUCTIONS TO VISIBILITY.


SDZ001>005-009-010-012>017-091100-
NORTHWEST AND NORTH CENTRAL SOUTH DAKOTA

CITY           SKY/WX    TMP DP  RH WIND       PRES   REMARKS
BUFFALO          N/A     -9 -13  83 NE7       30.28S WCI -24
FAITH            N/A     -2  -6  83 NE5       30.43F WCI -12
MOBRIDGE       CLOUDY    -3  -8  79 N5        30.52F WCI -13
$$

SDZ012>016-024>037-041>051-057-063-072>074-091100-
SOUTHWEST AND SOUTH CENTRAL SOUTH DAKOTA

CITY           SKY/WX    TMP DP  RH WIND       PRES   REMARKS
RAPID CTY ARPT CLOUDY     0  -5  79 NE6       30.31F WCI -12
PIERRE         CLOUDY     2  -2  83 E7        30.53F WCI -11
CUSTER         CLOUDY     3  -4  72 CALM      30.05F
ELLSWORTH AFB  CLOUDY    -1  -5  81 NE3       30.29F
PHILIP         CLOUDY    -3  -6  87 E6        30.46F WCI -15
PINE RIDGE     CLOUDY     4  -1  80 NE8       30.24F WCI  -9
SPEARFISH      MOCLDY    -6 -11  77 W5        30.24R WCI -17
WINNER         FAIR       1  -3  83 E5        30.51F WCI  -9
$$

SDZ004>011-016>023-039-040-091100-
NORTHEAST SOUTH DAKOTA

CITY           SKY/WX    TMP DP  RH WIND       PRES   REMARKS
ABERDEEN       CLOUDY    -7 -11  83 W3        30.59F
WATERTOWN      CLEAR     -4  -8  83 NW7       30.52F WCI -18
SISSETON         N/A     -2  -8  76 NW7       30.57F WCI -15
$$

SDZ017-020-022-023-036>040-048>070-091100-
SOUTHEAST SOUTH DAKOTA

CITY           SKY/WX    TMP DP  RH WIND       PRES   REMARKS
SIOUX FALLS    CLEAR      0  -3  87 W5        30.57F WCI -10
HURON          CLOUDY    -5  -8  87 CALM      30.60F
CHAMBERLAIN    LGT SNOW   5   2  88 CALM      30.56F
MITCHELL       CLEAR     -2  -5  87 W3        30.62F
YANKTON        CLEAR      0  -6  78 NW3       30.60F
$$

ABBREVIATIONS USED IN REMARKS
   TC - TEMPERATURE IN CELSIUS
  WCI - WIND CHILL INDEX
   HX - HEAT INDEX
  VSB - VISIBILITY





USA.gov is the U.S. government's official web portal to all federal, state and local government web resources and services.